Regional Weather Roundup
Issued by NWS Newport/Morehead, NC

Current Version | Previous Version | Text Only | Print | Product List | Glossary Off
Versions: 1 2 3 4 5 6 7 8 9 10 11 12 13 14 15 16 17 18 19 20 21 22 23 24 25 26 27 28 29 30 31 32 33 34 35 36 37 38 39 40 41 42 43 44 45 46 47 48 49 50
000 ASUS42 KMHX 251614 RWRMHX WEATHER ROUNDUP FOR EASTERN NORTH CAROLINA NATIONAL WEATHER SERVICE NEWPORT/MOREHEAD CITY NC 1200 PM EDT MON SEP 25 2017 NOTE: "FAIR" INDICATES FEW OR NO CLOUDS BELOW 12,000 FEET WITH NO SIGNIFICANT WEATHER AND/OR OBSTRUCTIONS TO VISIBILITY NCZ015>017-031-032-045>047-102-103-251700- NORTH COAST CITY SKY/WX TMP DP RH WIND PRES REMARKS EDENTON CLOUDY 80 71 74 NE13 29.98F ELIZABETH CITY CLOUDY 76 71 85 NE17 29.98S KITTY HAWK CLOUDY 73 67 82 NE7G20 29.96R MANTEO CLOUDY 73 69 86 NE18 29.96F $$ NCZ045>047-081-094-103-104-251700- CENTRAL COAST CITY SKY/WX TMP DP RH WIND PRES REMARKS FRISCO CLOUDY 80 73 79 NE13G25 29.90F $$ NCZ095-097-098-100-101-251700- SOUTHERN COAST CITY SKY/WX TMP DP RH WIND PRES REMARKS BEAUFORT PTSUNNY 81 73 76 NE17G28 29.89F CEDAR ISLAND NOT AVBL JACKSONVILLE PTSUNNY 79 72 79 N13 29.91F PINEY ISLAND NOT AVBL WILMINGTON CLOUDY 79 70 74 N12 29.92F $$ NCZ011>013-027>030-043-044-078>080-089-090>093-098-251700- COASTAL PLAIN CITY SKY/WX TMP DP RH WIND PRES REMARKS AHOSKIE CLOUDY 74 68 80 NE8 30.00F CLINTON CLOUDY 74 69 85 N5 29.97F ELIZABETHTOWN NOT AVBL GOLDSBORO PTSUNNY 77 73 88 N9 29.95S GREENVILLE CLOUDY 77 70 78 NE9G16 29.99S HAVELOCK CLOUDY 80 72 76 NE15G22 29.93S KENANSVILLE CLOUDY 73 68 83 N7 29.96F KINSTON CLOUDY 77 68 73 NE12G20 29.96F NEW BERN CLOUDY 81 71 71 NE14 29.94F RICHLANDS CLOUDY 78 70 76 N9 29.94F ROCKY MOUNT CLOUDY 75 68 78 NE13 29.99F WASHINGTON CLOUDY 77 69 75 NE12G20 29.96S WHITEVILLE NOT AVBL $$ AMZ130-135-150-152-154-156-158-170-250-252-270-ANZ085-086-088-633-658-670-251700- MARINE OBSERVATIONS STATION/POSITION TIME TEMP WIND PRES WAVE SWELL AIR SEA DIR/SP/G HT/PER HT/PER (UTC) (F) (DEG/KT/KT) (MB) (FT/S) (FT/S) CHESAPEAKE LIGHT NOT AVBL 64 E VA BEACH 1550 71 70 50/ 16/ 19 1015.0 14/15 13/15 DUCK 1536 72 76 40/ 21/ 24 1014.6 2 E DUCK 1600 75 N/A 8/14 5/14 OREGON INLET 1536 73 76 30/ 15/ 20 1013.9 13E OREGON INLT 1548 75 N/A 10/15 10/15 HATTERAS CG 1536 76 77 40/ 18/ 22 1012.5 DIAMOND BUOY 1550 76 76 20/ 23/ 25 1010.8 12/14 10/14 CAPE LOOKOUT 1600 77 30/ 25/ 29 1011.5 BEAUFORT LAB 1536 78 74 20/ 16/ 20 1011.8 30 SE NEW RVR IN 1508 78 40/ 21/ 27 1011.3 30 SE NEW RVR IN NOT AVBL 27 SE WRIGHTSVLE 1508 77 80 60/ 19/ 27 1011.5 5 SE WRIGHTSVLE NOT AVBL 225 S CAPE HAT 1550 81 81 360/ 37/ 47 995.1 24/11 41 SE CHARLESTON 1550 76 81 20/ 19/ 25 1011.4 10/14 8/14 $$

USA.gov is the U.S. government's official web portal to all federal, state and local government web resources and services.